TimeEST,TemperatureF,Dew PointF,Humidity,Sea Level PressureIn,VisibilityMPH,Wind Direction,Wind SpeedMPH,Gust SpeedMPH,PrecipitationIn,Events,Conditions,WindDirDegrees,DateUTC
12:54 AM,41.0,30.9,67,30.29,10.0,Calm,Calm,-,N/A,,Clear,0,2013-12-14 05:54:00
1:54 AM,41.0,33.1,73,30.27,9.0,NE,3.5,-,N/A,,Clear,40,2013-12-14 06:54:00
2:54 AM,41.0,32.0,70,30.27,10.0,Calm,Calm,-,N/A,,Partly Cloudy,0,2013-12-14 07:54:00
3:54 AM,43.0,30.0,60,30.26,10.0,Calm,Calm,-,N/A,,Mostly Cloudy,0,2013-12-14 08:54:00
4:54 AM,44.1,32.0,63,30.25,10.0,ESE,3.5,-,N/A,,Overcast,110,2013-12-14 09:54:00
5:54 AM,45.0,33.1,63,30.25,10.0,ESE,3.5,-,N/A,,Overcast,120,2013-12-14 10:54:00
6:54 AM,45.0,32.0,60,30.23,10.0,East,5.8,-,0.00,,Overcast,90,2013-12-14 11:54:00
7:54 AM,46.0,35.1,66,30.23,10.0,East,5.8,-,N/A,,Overcast,80,2013-12-14 12:54:00
8:54 AM,46.9,37.0,68,30.22,4.0,East,8.1,-,0.01,Rain,Rain,90,2013-12-14 13:54:00
9:54 AM,46.9,41.0,80,30.20,4.0,East,8.1,-,0.04,Rain,Light Rain,100,2013-12-14 14:54:00
10:23 AM,46.0,43.0,89,30.17,1.8,East,8.1,-,0.03,Rain,Rain,100,2013-12-14 15:23:00
10:30 AM,46.0,43.0,89,30.16,1.5,East,8.1,-,0.04,Rain,Light Rain,100,2013-12-14 15:30:00
10:33 AM,46.0,44.1,93,30.16,2.0,ESE,8.1,-,0.04,Rain,Light Rain,110,2013-12-14 15:33:00
10:41 AM,46.9,44.1,90,30.16,6.0,East,9.2,-,0.04,,Overcast,100,2013-12-14 15:41:00
10:54 AM,46.9,44.1,90,30.15,5.0,ESE,10.4,-,0.04,Rain,Light Rain,110,2013-12-14 15:54:00
11:54 AM,51.1,46.9,86,30.09,10.0,ESE,9.2,-,0.01,,Mostly Cloudy,110,2013-12-14 16:54:00
12:54 PM,54.0,50.0,86,29.96,10.0,ESE,15.0,-,N/A,,Scattered Clouds,110,2013-12-14 17:54:00
1:54 PM,57.0,54.0,89,29.92,10.0,SE,10.4,-,N/A,,Overcast,140,2013-12-14 18:54:00
2:54 PM,61.0,57.0,87,29.86,10.0,SSE,13.8,20.7,N/A,,Overcast,150,2013-12-14 19:54:00
3:54 PM,62.1,57.9,86,29.83,10.0,SSE,19.6,28.8,N/A,,Overcast,160,2013-12-14 20:54:00
4:33 PM,62.1,61.0,96,29.82,2.5,SSE,13.8,25.3,0.05,Rain,Rain,160,2013-12-14 21:33:00
4:41 PM,62.1,61.0,96,29.83,3.0,South,8.1,26.5,0.08,Rain,Rain,170,2013-12-14 21:41:00
4:54 PM,62.1,61.0,96,29.84,2.5,South,12.7,19.6,0.12,Rain,Light Rain,170,2013-12-14 21:54:00
4:58 PM,62.1,61.0,96,29.84,4.0,South,11.5,19.6,0.00,Rain,Light Rain,180,2013-12-14 21:58:00
5:08 PM,62.1,61.0,96,29.84,2.5,South,10.4,20.7,0.04,Rain,Rain,180,2013-12-14 22:08:00
5:14 PM,62.1,61.0,96,29.83,3.0,South,9.2,-,0.04,Rain,Light Rain,170,2013-12-14 22:14:00
5:17 PM,62.1,61.0,96,29.82,3.0,SSE,11.5,17.3,0.05,Rain,Light Rain,160,2013-12-14 22:17:00
5:24 PM,62.1,61.0,96,29.81,1.8,SSE,10.4,-,0.11,Rain,Heavy Rain,160,2013-12-14 22:24:00
5:31 PM,63.0,62.1,97,29.83,2.0,SSW,9.2,19.6,0.11,Rain,Light Rain,200,2013-12-14 22:31:00
5:39 PM,63.0,62.1,97,29.82,8.0,SW,4.6,-,0.12,Rain,Light Rain,220,2013-12-14 22:39:00
5:54 PM,63.0,62.1,97,29.82,2.0,SSW,9.2,-,0.16,Rain,Rain,200,2013-12-14 22:54:00
6:08 PM,63.0,62.1,97,29.83,3.0,SW,11.5,-,0.05,Rain,Rain,230,2013-12-14 23:08:00
6:16 PM,63.0,62.1,97,29.84,2.0,West,10.4,-,0.10,Rain,Heavy Rain,270,2013-12-14 23:16:00
6:23 PM,62.1,61.0,96,29.84,1.5,WNW,15.0,19.6,0.16,Rain,Heavy Rain,300,2013-12-14 23:23:00
6:34 PM,60.1,59.0,96,29.84,2.0,WNW,8.1,18.4,0.24,Rain,Heavy Rain,290,2013-12-14 23:34:00
6:39 PM,60.1,59.0,96,29.84,1.5,WNW,8.1,-,0.30,Rain,Heavy Rain,300,2013-12-14 23:39:00
6:54 PM,59.0,57.9,96,29.85,1.2,WNW,13.8,-,0.51,Rain-Thunderstorm,Heavy Rain,300,2013-12-14 23:54:00
6:57 PM,59.0,57.9,96,29.85,0.8,NW,9.2,-,0.09,Rain-Thunderstorm,Heavy Rain,310,2013-12-14 23:57:00
7:06 PM,59.0,57.9,96,29.85,1.2,NW,5.8,-,0.18,Rain-Thunderstorm,Heavy Rain,310,2013-12-15 00:06:00
7:10 PM,59.0,57.9,96,29.85,1.0,Variable,3.5,-,0.23,Rain,Heavy Rain,0,2013-12-15 00:10:00
7:22 PM,59.0,57.9,96,29.84,1.8,NW,4.6,-,0.31,Rain,Heavy Rain,320,2013-12-15 00:22:00
7:29 PM,59.0,57.9,96,29.84,2.5,NW,5.8,-,0.35,Rain,Heavy Rain,320,2013-12-15 00:29:00
7:38 PM,57.9,57.9,100,29.84,4.0,WNW,4.6,-,0.37,Rain,Rain,300,2013-12-15 00:38:00
7:50 PM,57.2,57.2,100,29.82,6.0,Calm,Calm,-,0.38,Rain,Light Rain,0,2013-12-15 00:50:00
7:54 PM,57.9,57.0,97,29.81,8.0,Calm,Calm,-,0.38,Rain,Light Rain,0,2013-12-15 00:54:00
8:54 PM,57.9,57.9,100,29.82,7.0,Calm,Calm,-,0.01,Rain,Light Rain,0,2013-12-15 01:54:00
9:20 PM,57.9,57.0,97,29.81,5.0,SSE,3.5,-,0.03,Rain,Light Rain,160,2013-12-15 02:20:00
9:39 PM,57.9,57.9,100,29.81,4.0,Calm,Calm,-,0.04,Rain,Light Rain,0,2013-12-15 02:39:00
9:54 PM,57.9,57.9,100,29.80,5.0,Calm,Calm,-,0.04,Rain,Light Rain,0,2013-12-15 02:54:00
10:09 PM,57.9,57.9,100,29.80,2.5,Calm,Calm,-,0.00,Rain,Light Rain,0,2013-12-15 03:09:00
10:24 PM,57.9,57.0,97,29.79,2.0,Calm,Calm,-,0.01,Rain,Light Rain,0,2013-12-15 03:24:00
10:32 PM,57.9,57.0,97,29.80,3.0,WNW,3.5,-,0.01,Rain,Light Rain,290,2013-12-15 03:32:00
10:40 PM,57.9,57.0,97,29.80,1.8,West,3.5,-,0.01,,Overcast,270,2013-12-15 03:40:00
10:49 PM,57.2,57.2,100,29.79,3.0,WNW,3.5,-,0.01,,Overcast,290,2013-12-15 03:49:00
10:54 PM,57.9,57.0,97,29.79,3.0,WNW,4.6,-,0.01,,Overcast,290,2013-12-15 03:54:00
11:16 PM,57.9,57.0,97,29.78,2.0,WNW,4.6,-,0.01,Rain,Light Rain,300,2013-12-15 04:16:00
11:26 PM,57.0,57.0,100,29.77,5.0,WNW,4.6,-,0.01,,Overcast,290,2013-12-15 04:26:00
11:46 PM,57.0,55.9,96,29.78,8.0,WNW,6.9,-,0.01,,Overcast,300,2013-12-15 04:46:00
11:54 PM,55.9,55.0,97,29.78,4.0,NW,8.1,-,0.01,,Overcast,310,2013-12-15 04:54:00